CAPE
nan nan nan nan nan nan nan nan nan nan nan nan nan nan nan nan nan nan nan nan nan nan nan nan nan nan nan nan nan nan nan nan 0 0 1 1 2 2 4 6 6 10 14 16 16 18 22 23 23 26 31 34 35 35 37 41 41 48 58 64 64 72 76 79 79 87 93 100 103 103 105 102 97 97 91 88 90 90 91 91 91 94 94 93 93 95
nan nan nan nan nan nan nan nan nan nan nan nan nan nan nan nan nan nan nan nan nan nan nan nan nan nan nan nan nan nan nan nan nan nan nan 0 2 2 4 7 7 10 12 15 15 17 18 21 21 23 27 32 35 35 34 37 37 44 51 57 57 67 73 76 76 81 86 87 89 89 87 82 81 81 78 78 85 85 90 90 90 97 95 94 94 97
nan nan nan nan nan nan nan nan nan nan nan nan nan nan nan nan nan nan nan nan nan nan nan nan nan nan nan nan nan nan nan nan nan nan nan 0 1 1 4 6 6 8 10 13 13 15 17 20 20 24 26 32 36 36 36 37 37 40 47 51 51 55 64 69 69 72 71 73 73 73 71 69 67 67 70 77 84 84 93 97 97 95 96 96 96 102
nan nan nan nan nan nan nan nan nan nan nan nan nan nan nan nan nan nan nan nan nan nan nan nan nan nan nan nan nan nan nan nan nan nan nan 0 1 1 3 4 4 5 7 10 10 13 17 19 19 23 27 32 36 36 35 37 37 37 43 46 46 52 54 57 57 59 63 61 61 61 59 59 61 61 69 77 83 83 91 93 93 87 92 95 95 98
nan nan nan nan nan nan nan nan nan nan nan nan nan nan nan nan nan nan nan nan nan nan nan nan nan nan nan nan nan nan nan nan nan nan nan nan 0 0 1 2 2 3 5 7 7 11 17 20 20 25 27 31 36 36 35 35 35 37 40 42 42 48 49 53 53 53 50 50 51 51 51 55 61 61 65 70 77 77 78 80 80 76 81 89 89 98
nan nan nan nan nan nan nan nan nan nan nan nan nan nan nan nan nan nan nan nan nan nan nan nan nan nan nan nan nan nan nan nan nan nan nan nan nan nan 0 0 0 1 3 5 5 9 15 20 20 24 25 28 33 33 33 35 35 37 39 42 42 45 46 47 47 47 46 46 45 45 48 50 54 54 57 62 65 65 68 75 75 74 84 89 89 95
nan nan nan nan nan nan nan nan nan nan nan nan nan nan nan nan nan nan nan nan nan nan nan nan nan nan nan nan nan nan nan nan nan nan nan nan nan nan nan 0 0 1 3 6 6 9 13 16 16 19 22 25 27 27 29 31 31 33 36 36 36 38 40 40 40 39 38 39 39 39 41 42 45 45 47 52 58 58 65 71 71 77 85 95 95 98
nan nan nan nan nan nan nan nan nan nan nan nan nan nan nan nan nan nan 0 0 0 nan nan nan nan nan nan nan nan nan nan nan nan nan nan nan nan nan nan 1 1 2 3 5 5 6 8 10 10 13 14 15 17 17 18 18 18 18 19 19 19 19 21 24 24 25 26 26 27 27 29 31 33 33 36 39 43 43 50 57 57 70 87 96 96 104
nan nan nan nan nan nan nan nan nan nan nan nan nan nan nan nan nan nan nan nan nan nan nan nan nan nan nan nan nan nan nan nan nan nan nan nan nan nan nan 1 1 2 3 3 3 4 5 7 7 8 8 8 10 10 10 9 9 9 9 10 10 12 14 16 16 19 23 24 25 25 27 30 33 33 37 39 42 42 44 52 52 69 85 103 103 116
nan nan nan nan nan nan nan nan nan nan nan nan nan nan nan nan nan nan nan nan nan nan nan nan nan nan nan nan nan nan nan nan 0 0 1 nan 1 1 0 nan nan nan 1 2 2 3 3 4 4 4 3 4 4 4 3 3 3 3 4 5 5 7 9 12 12 15 18 23 27 27 30 35 39 39 42 46 48 48 50 59 59 69 88 110 110 129
nan nan nan nan nan 1 0 nan nan nan nan nan 1 1 1 0 nan nan nan nan nan nan nan nan nan nan nan nan nan nan nan nan nan nan nan 1 1 1 1 1 1 0 1 1 1 0 0 0 0 1 0 0 0 0 0 0 0 1 1 2 2 4 6 10 10 15 20 27 31 31 35 42 48 48 49 51 54 54 59 65 65 76 91 111 111 127
nan nan 0 0 0 nan nan nan nan nan nan 0 0 0 0 0 0 0 nan nan nan nan nan nan nan nan nan nan nan nan nan nan nan nan nan nan nan nan nan nan nan nan nan nan nan nan nan nan nan nan nan nan nan nan nan nan nan 0 0 1 1 4 8 14 14 19 25 30 35 35 43 48 51 51 55 59 61 61 64 68 68 78 87 106 106 114
nan 0 1 1 1 0 nan nan nan nan nan nan nan nan nan nan nan nan nan nan nan nan nan nan nan nan nan nan nan nan nan nan nan nan nan nan nan nan nan nan nan nan nan nan nan nan nan nan nan nan nan nan nan nan nan nan nan nan 0 3 3 6 13 20 20 25 29 36 42 42 47 51 54 54 58 61 64 64 69 70 70 76 83 93 93 110
0 1 1 1 1 0 0 nan nan nan nan nan nan nan nan nan nan nan nan nan nan nan nan nan nan nan nan nan nan nan nan nan nan nan nan nan nan nan nan nan nan nan nan nan nan nan nan nan nan nan nan nan nan nan nan nan nan 0 2 5 5 11 18 26 26 28 35 42 47 47 48 50 55 55 58 64 71 71 75 77 77 81 86 92 92 99
2 2 3 1 1 0 nan nan nan nan 0 0 nan nan nan 0 nan nan nan nan nan nan nan nan nan nan nan nan nan nan 0 0 nan nan nan nan nan nan nan nan nan nan nan nan nan nan nan nan nan nan nan nan nan nan nan nan nan 2 4 10 10 16 23 27 27 31 37 42 46 46 47 52 57 57 63 74 79 79 79 85 85 85 87 90 90 96
3 4 4 2 2 0 0 0 0 0 0 0 0 0 nan nan nan nan nan nan nan nan 1 2 2 1 nan nan nan nan nan 1 1 1 nan nan nan nan nan nan nan nan nan nan nan nan nan nan nan nan nan nan nan nan nan 0 0 4 8 14 14 19 24 29 29 34 38 43 46 46 50 55 59 59 67 72 79 79 81 85 85 88 90 93 93 95
5 4 4 3 3 2 0 0 0 0 0 nan nan nan nan nan nan nan 0 1 1 4 5 3 3 4 0 nan nan nan 0 2 3 3 nan nan nan nan nan nan nan nan nan nan nan nan nan nan nan nan nan nan nan nan 0 2 2 6 11 16 16 20 25 27 27 31 37 44 48 48 51 55 57 57 65 70 73 73 78 85 85 91 92 95 95 98
7 7 6 4 4 2 0 nan nan nan 1 nan nan nan nan 1 2 2 3 5 5 7 7 8 8 4 3 1 nan nan 0 1 2 2 0 nan nan nan nan nan nan nan nan nan nan nan nan nan nan nan nan nan 0 0 1 5 5 9 13 16 16 18 22 26 26 31 36 41 45 45 50 51 56 56 59 67 68 68 72 78 78 88 93 100 100 102
7 7 5 3 3 0 0 nan nan nan nan nan nan nan 1 3 5 5 7 12 12 12 10 9 9 8 4 1 nan nan 0 1 2 2 0 nan nan nan nan nan nan nan nan nan nan nan nan nan nan nan nan 1 1 1 3 6 6 9 10 14 14 16 19 24 24 29 33 38 43 43 46 47 51 51 56 61 66 66 70 73 73 77 87 94 94 100
8 5 4 1 1 0 0 nan nan nan nan 2 4 4 5 6 7 7 8 10 10 16 14 12 12 10 5 2 0 0 0 0 1 1 1 nan nan nan nan nan nan nan nan nan nan nan nan nan nan nan nan 0 2 2 4 5 5 7 9 12 12 14 17 21 21 26 30 33 35 35 41 42 46 46 49 55 57 57 67 70 70 74 82 87 87 94
5 4 2 1 1 1 0 0 1 1 6 14 10 10 9 10 10 10 11 15 15 16 16 11 11 9 5 1 0 0 0 0 2 2 1 nan nan nan nan nan nan nan nan nan nan nan nan nan nan nan nan 0 1 1 2 3 3 5 7 9 9 11 16 19 19 23 28 29 31 31 34 39 41 41 45 48 54 54 60 67 67 72 80 88 88 93
4 4 2 2 2 2 3 4 9 9 14 17 16 16 14 15 17 17 14 18 18 19 16 13 13 8 3 1 0 0 1 1 2 2 1 nan nan nan nan nan nan nan nan nan nan nan nan nan nan nan nan 0 0 0 1 1 1 3 5 8 8 10 13 16 16 20 25 28 30 30 33 36 37 37 39 44 51 51 56 62 62 68 77 80 80 87
5 4 3 3 3 3 5 9 13 13 16 18 16 16 8 5 8 8 12 24 24 17 15 9 9 7 2 0 0 0 0 2 3 3 2 0 nan nan nan nan nan nan nan nan nan nan nan nan nan nan nan 0 0 0 0 1 1 3 5 6 6 8 11 13 13 16 20 23 28 28 33 35 36 36 39 40 46 46 49 54 54 61 64 69 69 73
5 5 5 6 6 13 13 11 15 15 16 12 3 3 2 5 24 24 28 22 22 12 7 4 4 2 1 1 nan nan nan 0 3 3 1 0 nan nan nan nan nan nan nan nan nan nan nan nan nan nan nan nan 0 0 1 1 1 3 4 6 6 7 9 10 10 14 16 20 26 26 31 36 37 37 39 39 42 42 45 48 48 50 54 58 58 60
4 5 6 8 8 28 21 16 25 25 39 40 28 28 25 22 20 20 8 5 5 5 5 4 4 1 0 1 nan nan nan nan 1 1 1 0 nan nan nan nan nan nan nan nan nan nan nan nan nan nan nan nan nan nan 0 1 1 3 5 6 6 6 8 9 9 12 13 18 23 23 28 33 34 34 37 38 41 41 42 45 45 47 50 54 54 56
5 8 9 16 16 36 39 49 52 52 50 25 11 11 8 9 7 7 7 4 4 3 4 2 2 1 0 nan nan nan nan nan 1 1 0 nan nan nan nan nan nan nan nan nan nan nan nan nan nan nan nan nan nan nan 0 2 2 3 5 5 5 6 7 8 8 10 12 16 20 20 26 30 32 32 34 35 39 39 42 42 42 46 48 50 50 56
6 14 21 29 29 31 29 26 25 25 25 23 15 15 12 8 5 5 3 1 1 2 3 2 2 1 nan nan nan nan nan nan nan nan nan nan nan nan nan nan nan nan nan nan nan nan nan nan nan nan nan nan nan nan 0 2 2 4 5 5 5 6 7 8 8 11 12 16 20 20 23 28 30 30 33 36 38 38 43 44 44 46 48 49 49 54
2 8 14 15 15 16 15 17 19 19 20 23 24 24 16 6 3 3 2 0 0 2 3 2 2 1 nan nan nan nan nan nan nan nan nan 0 0 0 nan nan nan nan nan nan nan 0 2 0 0 nan nan nan nan nan 0 2 2 3 3 4 4 5 6 8 8 9 12 14 19 19 22 25 30 30 34 36 38 38 40 42 42 46 47 36 36 18
0 0 1 2 2 3 4 5 7 7 8 8 11 11 9 3 2 2 1 1 1 3 3 3 3 1 0 nan nan nan nan nan nan nan 0 0 0 0 nan nan nan nan nan 0 0 1 1 nan nan nan nan nan nan nan nan 1 1 1 2 3 3 4 4 6 6 7 11 14 16 16 19 24 27 27 30 33 36 36 39 40 40 41 36 28 28 17
3 1 0 0 0 1 2 0 1 1 2 3 5 5 4 3 3 3 2 3 3 3 3 2 2 1 1 0 nan nan nan nan nan nan 0 nan 0 0 0 nan nan 0 0 1 1 1 nan nan nan nan nan nan nan nan nan nan nan nan 0 2 2 1 2 3 3 5 9 12 14 14 17 21 22 22 25 28 33 33 35 35 35 34 20 15 15 16
0 nan nan nan nan nan nan nan nan nan 0 2 4 4 3 2 2 2 3 3 3 2 2 1 1 1 1 1 0 0 nan nan nan nan 0 0 0 0 nan 0 0 1 1 0 0 0 nan nan nan nan nan nan nan nan nan nan nan nan nan nan nan nan 1 2 2 4 7 9 13 13 14 15 18 18 19 21 25 25 29 33 33 30 15 13 13 12
nan nan nan nan nan nan nan nan nan nan nan nan nan nan nan 0 1 1 1 2 2 3 3 3 3 2 2 2 0 0 nan nan nan nan 1 1 1 1 1 1 1 2 2 3 3 3 0 0 0 nan nan nan nan nan nan nan nan nan nan nan nan nan nan 1 1 1 1 3 6 6 7 8 9 9 11 14 16 16 17 20 20 24 16 9 9 14
nan nan nan nan nan nan nan nan nan nan nan nan nan nan nan nan 1 1 1 2 2 4 4 3 3 3 2 2 1 1 nan nan nan nan 3 2 2 2 1 2 2 2 3 3 3 2 0 1 1 0 0 nan nan nan nan nan nan nan nan nan nan nan nan 0 0 0 0 1 2 2 5 5 7 7 8 11 13 13 15 18 18 23 24 8 8 13
nan nan nan nan nan nan nan nan nan nan nan nan nan nan nan nan 0 0 1 3 3 5 5 3 3 3 3 2 1 1 nan nan 0 0 5 3 3 3 2 4 4 3 5 2 2 2 1 1 1 0 nan nan nan nan nan nan nan nan nan nan nan nan nan 0 0 0 0 0 0 0 1 1 6 6 5 7 9 9 13 17 17 22 32 18 18 15
nan nan nan nan nan nan nan nan nan nan nan nan nan nan nan nan 0 0 1 3 3 4 5 5 5 3 3 2 1 1 nan nan 0 0 6 3 1 1 2 5 5 1 4 2 2 4 3 2 2 2 1 0 nan nan nan nan nan nan nan nan nan nan nan 0 0 1 1 0 0 0 0 0 1 1 1 4 8 8 13 20 20 24 28 38 38 30
nan nan nan nan nan nan nan nan nan nan nan nan nan nan nan nan 0 0 1 2 2 3 5 5 5 5 3 3 1 1 0 nan 1 1 6 4 2 2 3 4 4 3 2 3 3 2 2 2 2 3 2 0 nan nan nan nan nan nan nan nan nan nan 0 1 1 1 0 0 0 0 0 1 1 1 2 7 12 12 16 20 20 23 27 34 34 37
nan nan nan nan nan nan nan nan nan nan nan nan nan nan nan nan 0 0 0 5 5 5 4 6 6 5 7 3 2 2 1 1 2 2 5 5 2 2 2 4 4 4 3 3 3 1 2 1 1 3 1 0 nan nan nan nan nan nan nan nan nan 0 0 0 0 1 1 2 2 2 2 2 3 3 5 12 12 12 15 19 19 17 21 24 24 28
nan nan nan nan nan nan nan nan nan nan nan nan nan nan nan nan 1 1 0 2 2 5 3 2 2 2 7 10 8 8 5 3 4 4 5 6 3 3 1 2 2 4 3 2 2 2 2 1 1 1 0 nan 1 1 1 0 0 0 nan nan nan 0 0 0 0 1 3 4 4 4 5 3 2 2 4 5 5 5 6 6 6 12 16 16 16 20
nan nan nan nan nan nan nan nan nan nan nan nan nan nan nan 0 1 1 0 1 1 1 2 2 2 1 3 7 11 11 9 5 2 2 2 6 6 6 2 2 2 4 4 2 2 2 1 0 0 0 0 0 0 0 0 0 0 0 0 0 0 0 0 0 0 2 4 3 5 5 4 2 2 2 2 3 3 3 4 4 4 9 8 6 6 14
nan nan nan nan nan nan nan nan nan nan nan 0 0 0 0 0 0 0 0 0 0 0 0 1 1 1 3 5 6 6 6 4 6 6 2 2 5 5 3 1 1 3 4 3 3 3 3 1 1 1 1 0 0 0 0 0 0 0 2 0 0 0 nan 0 0 1 2 2 2 2 2 2 3 3 4 4 3 3 4 4 4 7 8 6 6 6
nan nan nan nan nan nan nan nan nan nan 0 0 0 0 0 0 nan nan nan nan nan 0 0 2 2 2 2 4 2 2 3 4 4 4 2 nan 1 1 5 3 3 2 2 3 3 4 3 2 2 1 1 0 1 1 2 1 1 3 6 1 1 0 0 2 2 1 1 2 3 3 5 4 6 6 4 3 2 2 3 4 4 6 8 5 5 5
0 nan nan nan nan nan nan nan 0 0 1 1 0 0 0 0 0 0 0 0 0 1 1 2 2 2 1 1 1 1 2 2 3 3 4 nan 0 0 6 6 6 3 2 1 1 2 2 2 2 2 1 0 0 0 1 1 1 3 4 2 2 1 2 2 2 0 2 3 3 3 6 3 2 2 2 2 1 1 4 5 5 9 9 5 5 3
nan nan nan nan nan nan nan 1 2 2 1 0 nan nan 0 0 1 1 1 1 1 1 1 3 3 2 1 1 0 0 2 4 6 6 7 5 6 6 9 8 8 5 1 0 0 1 2 4 4 1 0 0 0 0 2 1 1 2 2 3 3 2 0 0 0 nan 2 3 2 2 2 3 1 1 2 2 1 1 3 8 8 15 12 3 3 3
nan nan nan nan nan 0 2 2 1 1 0 0 0 0 0 0 2 2 2 1 1 1 2 3 3 3 2 1 0 0 0 2 5 5 5 6 10 10 11 10 10 10 3 1 1 0 1 2 2 2 1 nan 1 1 3 2 2 2 1 2 2 1 0 0 0 0 1 1 2 2 1 2 1 1 2 3 2 2 4 4 4 2 8 5 5 2
nan nan nan 0 0 1 0 0 0 0 0 0 0 0 0 1 2 2 2 1 1 2 2 3 3 2 1 0 0 0 0 0 1 1 3 5 9 9 8 7 7 7 6 2 2 1 0 2 2 2 1 0 1 1 2 3 3 2 3 2 2 2 1 1 1 0 1 1 1 1 1 2 1 1 1 2 1 1 1 0 0 0 3 3 3 2
nan 0 0 0 0 1 1 1 0 0 0 0 0 0 0 1 2 2 2 1 1 2 2 4 4 1 1 0 0 0 0 0 0 0 0 3 6 6 7 6 6 5 5 4 4 2 nan 1 1 1 0 1 1 1 2 2 2 1 1 2 2 2 1 2 2 1 1 1 1 1 1 2 0 0 1 2 1 1 1 nan nan nan 0 2 2 2
nan nan 0 1 1 1 1 0 0 0 1 1 0 0 1 1 1 1 2 2 2 2 3 4 4 2 1 1 1 1 0 0 0 0 0 1 2 2 3 4 4 6 4 3 3 4 2 2 2 1 nan 0 3 3 2 1 1 0 1 1 1 2 1 1 1 0 1 1 1 1 2 2 nan nan 0 1 1 1 0 0 0 nan nan nan nan 0
0 0 0 1 1 1 1 1 1 1 1 1 0 0 1 1 2 2 2 3 3 4 4 2 2 2 1 1 1 1 1 1 0 0 1 1 1 1 3 3 3 4 5 6 6 5 4 3 3 2 nan nan 1 1 2 1 1 1 1 1 1 2 2 0 0 0 1 1 1 1 1 0 nan nan 0 1 1 1 1 1 1 0 nan nan nan nan
0 0 0 0 0 0 0 1 1 1 1 1 1 1 1 3 8 8 4 2 2 2 1 2 2 2 1 1 1 1 2 2 2 2 1 1 1 1 2 2 2 2 2 5 5 6 6 7 7 6 2 0 1 1 2 1 1 1 2 2 2 2 1 0 0 0 1 0 nan nan nan nan nan nan nan 1 2 2 2 2 2 2 1 0 0 0
0 0 1 1 1 0 0 1 1 1 1 1 1 1 1 1 2 2 2 2 2 2 1 1 1 2 1 1 1 1 1 1 1 1 1 1 1 1 2 3 3 2 2 3 3 4 3 6 6 7 9 5 1 1 1 1 1 1 3 2 2 2 0 0 0 1 1 2 2 2 2 1 nan nan nan 0 3 3 4 3 3 2 1 1 1 1
0 0 1 0 0 0 0 1 1 1 1 1 1 1 1 1 1 1 1 1 1 1 1 0 0 1 2 1 1 1 2 1 1 1 1 1 2 2 3 3 3 3 2 2 2 3 2 2 2 1 3 7 4 4 0 0 0 1 3 3 3 3 4 2 2 2 4 4 3 3 4 3 0 0 nan 0 5 5 6 4 4 1 0 1 1 1
CIN
nan nan nan nan nan nan nan nan nan nan nan nan nan nan nan nan nan nan nan nan nan nan nan nan nan nan nan nan nan nan nan nan 0 0 0 0 0 0 0 0 0 0 0 0 0 0 0 0 0 0 0 0 0 0 0 0 0 0 0 0 0 0 0 0 0 0 0 0 0 0 0 0 0 0 0 0 0 0 0 0 0 0 0 0 0 0
nan nan nan nan nan nan nan nan nan nan nan nan nan nan nan nan nan nan nan nan nan nan nan nan nan nan nan nan nan nan nan nan nan nan nan 0 0 0 0 0 0 0 0 0 0 0 0 0 0 0 0 0 0 0 0 0 0 0 0 0 0 0 0 0 0 0 0 0 0 0 0 0 0 0 0 0 0 0 0 0 0 0 0 0 0 0
nan nan nan nan nan nan nan nan nan nan nan nan nan nan nan nan nan nan nan nan nan nan nan nan nan nan nan nan nan nan nan nan nan nan nan 0 0 0 0 0 0 0 0 0 0 0 0 0 0 0 0 0 0 0 0 0 0 0 0 0 0 0 0 0 0 0 0 0 0 0 0 0 0 0 0 0 0 0 0 0 0 0 0 0 0 0
nan nan nan nan nan nan nan nan nan nan nan nan nan nan nan nan nan nan nan nan nan nan nan nan nan nan nan nan nan nan nan nan nan nan nan 0 0 0 0 0 0 0 0 0 0 0 0 0 0 0 0 0 0 0 0 0 0 0 0 0 0 0 0 0 0 0 0 0 0 0 0 0 0 0 0 0 0 0 0 0 0 0 0 0 0 0
nan nan nan nan nan nan nan nan nan nan nan nan nan nan nan nan nan nan nan nan nan nan nan nan nan nan nan nan nan nan nan nan nan nan nan nan 0 0 0 0 0 0 0 0 0 0 0 0 0 0 0 0 0 0 0 0 0 0 0 0 0 0 0 0 0 0 0 0 0 0 0 0 0 0 0 0 0 0 0 0 0 0 0 0 0 0
nan nan nan nan nan nan nan nan nan nan nan nan nan nan nan nan nan nan nan nan nan nan nan nan nan nan nan nan nan nan nan nan nan nan nan nan nan nan 0 0 0 0 0 0 0 0 0 0 0 0 0 0 0 0 0 0 0 0 0 0 0 0 0 0 0 0 0 0 0 0 0 0 0 0 0 0 0 0 0 0 0 0 0 0 0 0
nan nan nan nan nan nan nan nan nan nan nan nan nan nan nan nan nan nan nan nan nan nan nan nan nan nan nan nan nan nan nan nan nan nan nan nan nan nan nan 0 0 0 0 0 0 0 0 0 0 0 0 0 0 0 0 0 0 0 0 0 0 0 0 0 0 0 0 0 0 0 0 0 0 0 0 0 0 0 0 0 0 0 0 0 0 0
nan nan nan nan nan nan nan nan nan nan nan nan nan nan nan nan nan nan 0 0 0 nan nan nan nan nan nan nan nan nan nan nan nan nan nan nan nan nan nan 0 0 0 0 0 0 0 0 0 0 0 0 0 0 0 0 0 0 0 0 0 0 0 0 0 0 0 0 0 0 0 0 0 0 0 0 0 0 0 0 0 0 0 0 0 0 0
nan nan nan nan nan nan nan nan nan nan nan nan nan nan nan nan nan nan nan nan nan nan nan nan nan nan nan nan nan nan nan nan nan nan nan nan nan nan nan 0 0 0 0 0 0 0 0 0 0 0 0 0 0 0 0 0 0 0 0 0 0 0 0 0 0 0 0 0 0 0 0 0 0 0 0 0 0 0 0 0 0 0 0 0 0 0
nan nan nan nan nan nan nan nan nan nan nan nan nan nan nan nan nan nan nan nan nan nan nan nan nan nan nan nan nan nan nan nan 0 0 0 nan 0 0 0 nan nan nan 0 0 0 0 0 0 0 0 0 0 0 0 0 0 0 0 0 0 0 0 0 0 0 0 0 0 0 0 0 0 0 0 0 0 0 0 0 0 0 0 0 0 0 0
nan nan nan nan nan 0 0 nan nan nan nan nan 0 0 0 0 nan nan nan nan nan nan nan nan nan nan nan nan nan nan nan nan nan nan nan 0 0 0 0 0 0 0 0 0 0 0 0 0 0 0 0 0 0 0 0 0 0 0 0 0 0 0 0 0 0 0 0 0 0 0 0 0 0 0 0 0 0 0 0 0 0 0 0 0 0 0
nan nan 0 0 0 nan nan nan nan nan nan 0 0 0 0 0 0 0 nan nan nan nan nan nan nan nan nan nan nan nan nan nan nan nan nan nan nan nan nan nan nan nan nan nan nan nan nan nan nan nan nan nan nan nan nan nan nan 0 0 0 0 0 0 0 0 0 0 0 0 0 0 0 0 0 0 0 0 0 0 0 0 0 0 0 0 0
nan 0 0 0 0 0 nan nan nan nan nan nan nan nan nan nan nan nan nan nan nan nan nan nan nan nan nan nan nan nan nan nan nan nan nan nan nan nan nan nan nan nan nan nan nan nan nan nan nan nan nan nan nan nan nan nan nan nan 0 0 0 0 0 0 0 0 0 0 0 0 0 0 0 0 0 0 0 0 0 0 0 0 0 0 0 0
0 0 0 0 0 0 0 nan nan nan nan nan nan nan nan nan nan nan nan nan nan nan nan nan nan nan nan nan nan nan nan nan nan nan nan nan nan nan nan nan nan nan nan nan nan nan nan nan nan nan nan nan nan nan nan nan nan 0 0 0 0 0 0 0 0 0 0 0 0 0 0 0 0 0 0 0 0 0 0 0 0 0 0 0 0 0
0 0 0 0 0 0 nan nan nan nan 0 0 nan nan nan 0 nan nan nan nan nan nan nan nan nan nan nan nan nan nan 0 0 nan nan nan nan nan nan nan nan nan nan nan nan nan nan nan nan nan nan nan nan nan nan nan nan nan 0 0 0 0 0 0 0 0 0 0 0 0 0 0 0 0 0 0 0 0 0 0 0 0 0 0 0 0 0
0 0 0 0 0 0 0 0 0 0 0 0 0 0 nan nan nan nan nan nan nan nan 0 0 0 0 nan nan nan nan nan 0 0 0 nan nan nan nan nan nan nan nan nan nan nan nan nan nan nan nan nan nan nan nan nan 0 0 0 0 0 0 0 0 0 0 0 0 0 0 0 0 0 0 0 0 0 0 0 0 0 0 0 0 0 0 0
0 0 0 0 0 0 0 0 0 0 0 nan nan nan nan nan nan nan 0 0 0 0 0 0 0 0 0 nan nan nan 0 0 0 0 nan nan nan nan nan nan nan nan nan nan nan nan nan nan nan nan nan nan nan nan 0 0 0 0 0 0 0 0 0 0 0 0 0 0 0 0 0 0 0 0 0 0 0 0 0 0 0 0 0 0 0 0
0 0 0 0 0 0 0 nan nan nan 0 nan nan nan nan 0 0 0 0 0 0 0 0 0 0 0 0 0 nan nan 0 0 0 0 0 nan nan nan nan nan nan nan nan nan nan nan nan nan nan nan nan nan 0 0 0 0 0 0 0 0 0 0 0 0 0 0 0 0 0 0 0 0 0 0 0 0 0 0 0 0 0 0 0 0 0 0
0 0 0 0 0 0 0 nan nan nan nan nan nan nan 0 0 0 0 0 0 0 0 0 0 0 0 0 0 nan nan 0 0 0 0 0 nan nan nan nan nan nan nan nan nan nan nan nan nan nan nan nan 0 0 0 0 0 0 0 0 0 0 0 0 0 0 0 0 0 0 0 0 0 0 0 0 0 0 0 0 0 0 0 0 0 0 0
0 0 0 0 0 0 0 nan nan nan nan 0 0 0 0 0 0 0 0 0 0 0 0 0 0 0 0 0 0 0 0 0 0 0 0 nan nan nan nan nan nan nan nan nan nan nan nan nan nan nan nan 0 0 0 0 0 0 0 0 0 0 0 0 0 0 0 0 0 0 0 0 0 0 0 0 0 0 0 0 0 0 0 0 0 0 0
0 0 0 0 0 0 0 0 0 0 0 0 0 0 0 0 0 0 0 0 0 0 0 0 0 0 0 0 0 0 0 0 0 0 0 nan nan nan nan nan nan nan nan nan nan nan nan nan nan nan nan 0 0 0 0 0 0 0 0 0 0 0 0 0 0 0 0 0 0 0 0 0 0 0 0 0 0 0 0 0 0 0 0 0 0 0
0 0 0 0 0 0 0 0 0 0 0 0 0 0 0 0 0 0 0 0 0 0 0 0 0 0 0 0 0 0 0 0 0 0 0 nan nan nan nan nan nan nan nan nan nan nan nan nan nan nan nan 0 0 0 0 0 0 0 0 0 0 0 0 0 0 0 0 0 0 0 0 0 0 0 0 0 0 0 0 0 0 0 0 0 0 0
0 0 0 0 0 0 0 0 0 0 0 0 0 0 0 0 0 0 0 0 0 0 0 0 0 0 0 0 0 0 0 0 0 0 0 0 nan nan nan nan nan nan nan nan nan nan nan nan nan nan nan 0 0 0 0 0 0 0 0 0 0 0 0 0 0 0 0 0 0 0 0 0 0 0 0 0 0 0 0 0 0 0 0 0 0 0
0 0 0 0 0 0 0 0 0 0 0 0 -0 -0 -3 -0 0 0 0 0 0 0 0 0 0 0 0 0 nan nan nan 0 0 0 0 0 nan nan nan nan nan nan nan nan nan nan nan nan nan nan nan nan 0 0 0 0 0 0 0 0 0 0 0 0 0 0 0 0 0 0 0 0 0 0 0 0 0 0 0 0 0 0 0 0 0 0
0 0 0 0 0 0 0 0 0 0 0 0 0 0 0 -0 0 0 0 0 0 0 0 0 0 0 0 0 nan nan nan nan 0 0 0 0 nan nan nan nan nan nan nan nan nan nan nan nan nan nan nan nan nan nan 0 0 0 0 0 0 0 0 0 0 0 0 0 0 0 0 0 0 0 0 0 0 0 0 0 0 0 0 0 0 0 0
0 0 0 0 0 0 0 0 0 0 0 0 0 0 0 0 0 0 0 0 0 0 0 0 0 0 0 nan nan nan nan nan 0 0 0 nan nan nan nan nan nan nan nan nan nan nan nan nan nan nan nan nan nan nan 0 0 0 0 0 0 0 0 0 0 0 0 0 0 0 0 0 0 0 0 0 0 0 0 0 0 0 0 0 0 0 0
0 0 0 0 0 0 0 0 0 0 0 0 0 0 0 0 0 0 0 0 0 0 0 0 0 0 nan nan nan nan nan nan nan nan nan nan nan nan nan nan nan nan nan nan nan nan nan nan nan nan nan nan nan nan 0 0 0 0 0 0 0 0 0 0 0 0 0 0 0 0 0 0 0 0 0 0 0 0 0 0 0 0 0 0 0 0
0 0 0 0 0 0 0 0 0 0 0 0 0 0 0 0 0 0 0 0 0 0 0 0 0 0 nan nan nan nan nan nan nan nan nan 0 0 0 nan nan nan nan nan nan nan 0 0 0 0 nan nan nan nan nan 0 0 0 0 0 0 0 0 0 0 0 0 0 0 0 0 0 0 0 0 0 0 0 0 0 0 0 0 0 0 0 -0
0 0 0 0 0 0 0 0 0 0 0 0 0 0 0 0 0 0 0 0 0 0 0 0 0 0 0 nan nan nan nan nan nan nan 0 0 0 0 nan nan nan nan nan 0 0 0 0 nan nan nan nan nan nan nan nan 0 0 0 0 0 0 0 0 0 0 0 0 0 0 0 0 0 0 0 0 0 0 0 0 0 0 0 0 0 0 0
0 0 0 0 0 0 0 0 0 0 0 0 0 0 0 0 0 0 0 0 0 0 0 0 0 0 0 0 nan nan nan nan nan nan 0 nan 0 0 0 nan nan 0 0 0 0 0 nan nan nan nan nan nan nan nan nan nan nan nan 0 0 0 0 0 0 0 0 0 0 0 0 0 0 0 0 0 0 0 0 0 0 0 0 0 0 0 0
0 nan nan nan nan nan nan nan nan nan 0 0 0 0 0 0 0 0 0 0 0 0 0 0 0 0 0 0 0 0 nan nan nan nan 0 0 0 0 nan 0 0 0 0 -0 -0 0 nan nan nan nan nan nan nan nan nan nan nan nan nan nan nan nan 0 0 0 0 0 0 0 0 0 0 0 0 0 0 0 0 0 0 0 0 0 0 0 0
nan nan nan nan nan nan nan nan nan nan nan nan nan nan nan 0 0 0 0 0 0 0 0 0 0 0 0 0 0 0 nan nan nan nan 0 0 0 0 0 0 0 0 0 0 0 0 0 0 0 nan nan nan nan nan nan nan nan nan nan nan nan nan nan 0 0 0 0 0 0 0 0 0 0 0 0 0 0 0 0 0 0 0 0 0 0 0
nan nan nan nan nan nan nan nan nan nan nan nan nan nan nan nan 0 0 0 0 0 0 0 0 0 0 0 0 0 0 nan nan nan nan 0 0 0 0 0 0 0 0 0 0 0 0 0 0 0 0 0 nan nan nan nan nan nan nan nan nan nan nan nan 0 0 0 0 0 0 0 0 0 0 0 0 0 0 0 0 0 0 0 0 0 0 0
nan nan nan nan nan nan nan nan nan nan nan nan nan nan nan nan 0 0 0 0 0 0 0 0 0 0 0 0 0 0 nan nan 0 0 0 0 0 0 0 0 0 0 0 0 0 0 0 0 0 0 nan nan nan nan nan nan nan nan nan nan nan nan nan 0 0 0 0 0 0 0 0 0 0 0 0 0 0 0 0 0 0 0 0 0 0 0
nan nan nan nan nan nan nan nan nan nan nan nan nan nan nan nan 0 0 0 0 0 0 0 0 0 0 0 0 0 0 nan nan 0 0 0 0 0 0 0 0 0 0 0 0 0 0 0 0 0 0 0 0 nan nan nan nan nan nan nan nan nan nan nan 0 0 0 0 0 0 0 0 0 0 0 0 0 0 0 0 0 0 0 0 0 0 0
nan nan nan nan nan nan nan nan nan nan nan nan nan nan nan nan 0 0 0 0 0 0 0 0 0 0 0 0 0 0 0 nan 0 0 0 0 0 0 0 0 0 0 0 0 0 0 0 0 0 0 0 0 nan nan nan nan nan nan nan nan nan nan 0 0 0 0 0 0 0 0 0 0 0 0 0 0 0 0 0 0 0 0 0 0 0 0
nan nan nan nan nan nan nan nan nan nan nan nan nan nan nan nan 0 0 0 0 0 0 0 0 0 0 0 0 0 0 0 0 0 0 0 0 0 0 0 0 0 0 0 0 0 0 0 0 0 0 0 0 nan nan nan nan nan nan nan nan nan 0 0 0 0 0 0 0 0 0 0 0 0 0 0 0 0 0 0 0 0 0 0 0 0 0
nan nan nan nan nan nan nan nan nan nan nan nan nan nan nan nan 0 0 0 0 0 0 0 0 0 0 0 0 0 0 0 0 0 0 0 0 0 0 0 0 0 0 0 0 0 0 0 0 0 0 0 nan 0 0 0 0 0 0 nan nan nan 0 0 0 0 0 0 0 0 0 0 0 0 0 0 0 0 0 0 0 0 0 0 0 0 0
nan nan nan nan nan nan nan nan nan nan nan nan nan nan nan 0 0 0 0 0 0 0 0 0 0 0 -2 -4 0 0 0 -2 -9 -9 -7 -2 0 0 0 0 0 0 0 0 0 0 0 0 0 0 0 0 0 0 0 0 0 0 0 0 0 0 0 0 0 0 0 0 0 0 0 0 0 0 0 0 0 0 0 0 0 0 0 0 0 0
nan nan nan nan nan nan nan nan nan nan nan 0 0 0 0 0 0 0 0 0 0 0 0 0 0 0 0 0 0 0 0 -8 -2 -2 -6 -5 -1 -1 0 0 0 0 0 0 0 0 0 0 0 0 0 0 0 0 0 0 0 0 0 0 0 0 nan 0 0 0 0 0 0 0 0 0 0 0 0 0 0 0 0 0 0 0 0 0 0 0
nan nan nan nan nan nan nan nan nan nan 0 0 0 0 0 0 nan nan nan nan nan 0 0 0 0 0 0 0 0 0 0 -3 0 0 -8 nan -2 -2 0 0 0 0 0 0 0 0 0 0 0 0 0 0 0 0 0 0 0 0 0 0 0 0 0 0 0 0 0 0 0 0 0 0 0 0 0 0 0 0 0 0 0 0 0 0 0 0
0 nan nan nan nan nan nan nan 0 0 0 0 0 0 0 0 0 0 0 0 0 0 0 0 0 0 0 0 0 0 0 0 -4 -4 -10 nan -8 -8 0 0 0 0 0 0 0 0 0 0 0 0 0 0 0 0 0 0 0 0 0 0 0 0 0 0 0 0 0 0 0 0 0 0 0 0 0 0 0 0 0 0 0 0 0 0 0 0
nan nan nan nan nan nan nan 0 0 0 0 0 nan nan 0 0 0 0 0 0 0 0 0 0 0 0 0 0 0 0 0 0 0 0 0 -12 -9 -9 0 0 0 0 0 -0 -0 0 0 0 0 0 0 0 -0 -0 0 0 0 0 0 0 0 0 0 0 0 nan 0 0 0 0 0 0 0 0 0 0 0 0 0 0 0 0 0 0 0 0
nan nan nan nan nan 0 0 0 0 0 0 0 0 0 0 0 0 0 0 0 0 0 0 0 0 0 0 0 0 0 0 0 0 0 0 0 -5 -5 0 0 0 0 0 0 0 0 0 0 0 0 0 nan 0 0 0 0 0 0 0 0 0 0 0 0 0 0 0 0 0 0 0 0 0 0 0 0 0 0 0 0 0 0 0 0 0 0
nan nan nan 0 0 0 0 0 0 0 0 0 0 0 0 0 0 0 0 0 0 0 0 0 0 0 0 0 0 0 0 0 0 0 0 0 0 0 -0 0 0 0 0 0 0 0 0 0 0 0 0 -0 0 0 0 0 0 0 0 0 0 0 0 0 0 0 0 0 0 0 0 -1 -0 -0 0 0 0 0 -0 -0 -0 -0 0 0 0 0
nan 0 0 0 0 0 0 0 0 0 0 0 0 0 0 0 0 0 0 0 0 0 0 0 0 0 0 0 0 0 0 0 0 0 0 0 0 0 0 0 0 0 0 0 0 -0 nan 0 0 0 -0 0 0 0 0 0 0 0 0 0 0 0 0 0 0 0 0 0 0 0 0 -1 -0 -0 -0 0 0 0 -0 nan nan nan -0 -0 -0 0
nan nan 0 0 0 0 0 0 0 0 0 0 0 0 0 0 0 0 0 0 0 0 0 0 0 0 0 0 0 0 0 0 0 0 0 0 0 0 0 0 0 0 0 0 0 0 -0 -2 -2 -1 nan -0 0 0 0 0 0 0 0 0 0 0 0 0 0 0 0 0 0 0 -0 -7 nan nan -0 0 -0 -0 -0 -2 -2 nan nan nan nan -0
0 0 0 0 0 0 0 0 0 0 0 0 0 0 0 0 0 0 0 0 0 0 0 0 0 0 0 0 0 0 0 0 0 0 0 0 0 0 0 0 0 0 0 0 0 0 0 -6 -6 -6 nan nan 0 0 0 0 0 0 0 0 0 0 0 0 0 0 0 -1 -12 -12 -10 -6 nan nan -1 -0 -0 -0 -0 -0 -0 -2 nan nan nan nan
0 0 0 0 0 0 0 0 0 0 0 0 0 0 0 0 0 0 0 0 0 0 0 0 0 0 0 0 0 0 0 0 0 0 0 0 0 0 0 0 0 0 0 0 0 0 0 0 0 0 0 0 0 0 0 0 0 0 0 0 0 0 0 0 0 0 0 -10 nan nan nan nan nan nan nan -0 0 0 0 0 0 -0 -1 -2 -2 -4
0 0 0 0 0 0 0 0 0 0 0 0 0 0 0 0 0 0 0 0 0 0 0 0 0 0 0 0 0 0 0 0 0 0 0 0 0 0 0 0 0 0 0 0 0 0 0 0 0 0 0 0 0 0 0 0 0 0 0 0 0 0 0 -0 -0 0 -0 -4 -26 -26 -24 -11 nan nan nan -1 0 0 0 0 0 -0 -3 -3 -3 -3
0 0 0 0 0 0 0 0 0 0 0 0 0 0 0 0 0 0 0 0 0 0 0 0 0 0 0 0 0 0 0 0 0 0 0 0 0 0 0 0 0 0 0 0 0 0 0 0 0 0 0 0 -1 -1 -1 0 0 0 0 0 0 0 0 0 0 0 0 0 -11 -11 -18 -11 -4 -4 nan -1 0 0 0 0 0 -0 -4 -4 -4 -4
Wind_Speed
2 1 1 2 2 3 4 4 4 4 5 4 4 5 4 5 5 6 7 7 7 7 7 7 8 8 9 11 12 13 14 14 15 15 15 16 16 16 16 16 17 17 17 17 17 18 18 18 18 18 18 19 19 19 19 19 19 19 19 20 20 20 21 21 21 21 21 21 22 22 22 22 22 22 22 22 22 22 23 23 23 23 24 24 24 25
2 2 2 3 3 4 4 4 5 5 5 5 5 5 5 6 6 6 6 7 7 7 7 7 8 9 10 10 11 13 14 14 15 15 15 16 16 16 16 17 17 17 17 17 17 17 17 18 18 18 18 18 18 19 19 19 19 19 19 19 20 20 20 21 21 21 21 22 22 22 22 22 23 23 23 23 23 23 23 24 24 24 24 24 25 25
2 2 3 3 4 4 4 4 5 5 5 5 5 6 7 7 6 6 5 6 6 6 6 7 7 8 9 10 11 13 14 14 15 15 16 16 16 17 17 17 17 17 17 17 17 17 17 17 17 18 18 18 18 18 19 19 19 19 19 19 20 20 20 20 21 21 21 22 22 22 22 23 23 23 23 23 24 24 24 24 24 24 24 25 25 25
2 2 2 2 3 3 4 4 4 4 5 5 6 7 7 7 6 5 5 5 6 6 6 7 8 8 8 8 10 12 14 15 15 16 16 16 17 17 17 17 17 17 17 17 17 17 17 17 17 18 18 18 18 18 19 19 19 19 19 19 20 20 20 20 21 21 21 22 22 22 22 22 23 23 23 23 24 24 24 24 25 25 25 25 25 25
2 2 2 2 2 3 3 3 4 4 4 5 6 6 6 5 5 5 5 5 6 6 6 7 7 8 7 7 9 11 14 15 16 16 16 16 16 17 17 16 16 16 16 17 17 17 17 17 18 18 18 18 19 19 19 19 19 20 20 20 20 20 20 21 21 21 21 21 21 22 22 22 22 23 23 23 23 24 24 24 24 25 25 25 25 25
2 2 2 2 2 2 3 3 3 4 4 5 5 5 5 5 5 5 5 5 5 6 6 6 7 8 8 8 10 12 14 15 15 15 16 16 16 16 16 16 16 16 16 17 17 17 18 18 18 18 19 19 19 19 20 20 20 20 20 20 20 20 21 21 21 21 21 21 21 21 22 22 22 22 22 23 23 23 23 24 24 24 25 25 25 25
2 2 1 2 2 2 3 3 3 4 4 4 4 4 4 4 5 5 5 5 5 5 6 6 7 7 8 9 10 11 12 13 13 14 14 14 15 15 15 15 15 16 16 17 17 18 18 18 19 19 19 19 20 20 20 20 20 20 20 20 20 20 20 20 21 21 21 21 21 21 21 21 21 22 22 22 22 23 23 23 24 24 24 24 25 25
2 2 2 2 2 2 3 3 3 4 4 3 4 4 4 4 4 5 6 6 6 6 6 6 6 7 7 8 9 9 9 10 10 10 11 12 12 13 14 14 15 16 17 17 18 18 18 19 19 19 20 20 20 20 20 20 20 20 20 20 20 20 20 20 20 20 20 20 20 21 21 21 21 21 22 22 22 22 22 23 23 23 24 24 24 25
3 3 2 2 3 3 3 3 3 3 3 4 4 4 4 4 4 4 5 5 5 5 5 6 6 7 7 7 8 8 8 8 8 8 9 9 10 11 12 13 14 16 16 17 18 18 19 19 19 20 20 20 20 20 20 20 20 20 20 20 19 19 19 19 19 20 20 20 20 20 20 21 21 21 21 21 22 22 22 22 23 23 24 24 24 25
3 3 3 3 3 3 3 3 3 4 4 4 4 4 4 5 5 5 5 5 4 4 4 5 6 7 7 7 7 7 8 8 9 10 10 10 11 12 12 13 13 14 16 17 17 18 18 19 19 19 19 20 20 20 20 20 19 19 19 19 19 19 19 19 19 19 20 20 20 20 21 21 21 21 21 21 22 22 22 22 23 23 23 24 24 25
3 3 2 3 2 2 3 3 3 3 4 4 4 3 3 4 4 5 6 5 5 5 4 5 6 6 6 6 6 7 7 7 7 8 9 10 12 12 13 12 13 13 15 15 16 17 17 18 18 18 19 19 19 19 19 19 18 18 18 18 18 18 19 19 19 19 20 20 20 21 21 21 21 21 22 22 22 22 22 22 23 23 23 24 24 25
2 2 2 2 2 2 2 3 3 3 3 3 3 3 4 3 4 4 5 6 6 6 5 5 5 5 6 6 6 6 6 6 6 6 6 7 8 9 9 9 10 11 12 13 14 14 16 16 17 17 17 18 18 18 18 17 17 18 18 18 18 18 19 19 19 20 20 21 21 21 21 22 22 22 22 22 22 23 23 23 23 23 23 24 24 25
2 2 2 2 2 2 3 3 3 3 3 3 3 3 3 3 3 4 5 6 6 6 6 5 5 5 6 6 6 6 6 6 6 5 5 5 6 6 6 7 7 8 8 9 9 10 12 14 15 15 16 16 17 17 17 17 17 17 17 18 18 19 19 20 20 21 21 21 22 22 22 22 22 22 22 23 23 23 23 23 23 23 24 24 24 24
2 2 2 2 3 3 3 3 3 3 2 2 3 3 4 4 4 4 5 5 5 5 5 6 6 5 5 6 6 6 5 5 5 5 5 5 5 6 6 6 7 7 7 8 8 8 10 11 11 12 14 15 15 16 15 16 16 17 18 18 19 20 20 21 21 21 22 22 22 22 22 22 23 23 23 23 23 23 23 23 24 24 24 24 24 24
2 2 3 3 3 3 3 3 3 3 3 3 3 4 4 4 5 5 5 5 5 5 5 6 6 6 5 5 5 5 5 5 4 5 6 5 6 6 7 7 7 7 7 8 8 8 10 10 9 9 11 13 14 14 15 16 17 18 19 20 20 21 21 22 22 22 22 22 23 23 23 23 23 23 23 23 23 23 23 24 24 24 24 24 24 24
2 3 3 4 4 3 3 3 3 3 3 4 4 4 4 4 4 4 4 5 5 5 5 6 6 5 4 4 5 5 5 5 4 5 6 6 6 6 7 7 7 7 7 8 8 8 8 8 9 9 10 13 15 16 18 18 19 20 20 21 22 22 22 22 22 22 23 23 23 23 23 23 23 23 23 23 23 23 23 24 24 24 24 24 24 24
3 3 3 4 4 4 4 3 3 4 4 4 4 4 4 4 4 4 4 4 4 4 4 4 5 5 4 4 4 4 5 5 4 5 6 7 6 6 7 7 7 8 8 8 8 8 8 8 8 9 10 12 15 18 19 20 20 21 22 22 22 22 22 22 23 23 23 23 23 23 23 23 23 23 23 23 23 23 23 23 24 24 24 24 24 24
3 3 3 3 3 4 4 4 4 3 3 3 3 4 4 4 4 4 4 4 4 4 4 4 4 4 4 4 3 3 5 5 5 5 6 7 7 6 6 7 7 8 8 8 8 8 8 8 8 9 11 15 18 19 21 21 22 22 22 22 22 23 23 23 23 23 23 23 23 23 23 24 24 24 24 23 23 23 23 23 23 23 23 24 24 24
3 3 3 3 4 4 4 3 3 3 3 3 4 4 4 4 4 5 5 5 5 5 5 5 4 4 5 5 5 5 5 6 6 6 6 7 7 6 6 7 7 8 8 8 8 8 8 8 10 12 15 18 20 21 21 22 22 22 22 23 23 23 23 23 23 23 23 23 23 24 24 24 24 24 24 24 24 23 23 23 23 23 23 23 23 24
3 3 4 4 4 4 4 3 3 3 3 4 4 4 5 5 5 5 5 5 5 5 5 5 5 5 5 6 6 6 6 6 6 6 6 7 7 7 6 7 7 8 8 8 8 8 8 8 10 12 15 17 19 20 21 22 22 23 23 23 23 23 23 23 23 23 23 23 24 24 24 24 24 24 24 24 24 24 23 24 23 24 24 24 24 24
4 4 4 3 3 3 3 3 3 4 4 5 5 5 5 5 5 5 5 5 5 5 5 5 5 6 5 6 6 7 7 6 6 5 4 5 6 6 6 6 7 8 8 8 8 8 8 9 9 10 12 16 18 20 21 22 23 23 24 24 24 24 23 23 23 23 23 23 24 24 24 24 24 24 24 24 24 24 24 24 24 24 24 24 24 24
4 4 4 4 4 3 3 4 4 5 6 6 6 6 5 5 5 5 5 5 5 5 5 5 6 6 7 7 7 7 7 6 5 5 4 5 6 6 5 5 6 7 8 8 8 8 8 9 9 10 12 17 19 21 22 23 23 24 24 24 24 24 23 23 23 23 23 23 24 24 24 24 24 24 24 24 24 24 24 24 24 24 24 24 24 24
4 4 5 5 4 4 4 4 5 6 6 6 6 6 4 5 5 5 5 5 5 5 5 6 6 7 8 8 7 7 6 6 5 4 4 5 6 6 5 5 6 7 8 8 8 8 9 9 9 10 13 17 20 21 22 23 23 24 24 24 24 23 23 23 23 23 23 23 24 24 24 24 24 24 24 24 24 24 24 24 24 24 24 24 24 24
4 4 4 4 4 4 4 4 5 5 5 5 5 5 4 5 5 5 5 5 6 6 6 6 7 7 7 7 7 6 6 5 4 3 3 5 5 6 5 5 6 7 8 8 8 8 9 9 9 10 11 16 19 21 22 23 23 23 23 23 23 23 23 23 23 23 23 23 24 24 24 24 24 24 24 24 24 24 24 24 24 24 24 24 24 24
5 4 4 4 4 5 5 5 5 5 5 5 5 5 5 5 6 6 6 6 6 6 6 7 7 7 6 6 6 5 4 4 4 3 3 4 5 5 5 5 6 7 8 8 8 8 9 9 10 10 10 13 17 20 21 22 23 23 23 23 23 23 23 23 23 23 24 24 24 24 24 24 24 24 24 24 24 24 24 24 24 24 24 24 24 24
6 6 6 6 7 8 9 9 9 9 9 8 7 6 6 6 7 7 7 6 6 6 6 7 7 6 6 5 4 4 3 3 3 3 4 4 5 5 5 5 6 7 8 8 8 8 9 10 10 10 10 11 14 17 20 21 21 22 22 22 22 23 23 23 23 23 24 24 24 24 24 24 24 24 24 24 24 24 24 24 24 24 24 24 24 23
6 7 8 9 9 10 11 11 12 13 14 13 11 10 8 7 7 7 7 6 6 5 6 6 6 6 6 5 4 4 4 3 3 4 4 4 5 5 5 5 6 7 8 8 8 8 10 10 10 10 10 10 11 14 17 19 20 21 21 22 22 22 23 23 23 23 23 23 23 23 23 23 23 23 23 24 24 24 24 24 24 24 23 23 21 19
5 5 6 7 9 10 11 12 13 13 14 14 15 13 10 8 7 7 7 5 5 5 5 5 6 6 5 5 5 4 5 4 4 4 4 4 4 4 5 5 6 6 7 7 7 8 10 10 10 10 10 10 10 11 14 16 18 19 20 21 22 22 22 22 22 23 23 23 23 23 23 23 23 23 23 23 23 23 23 24 23 23 22 19 15 13
4 5 6 7 9 10 11 12 12 13 14 14 13 12 9 7 6 6 6 5 4 4 5 5 5 5 5 5 5 5 5 5 5 5 4 4 4 4 5 5 5 5 6 6 6 7 8 8 8 8 9 9 9 9 10 13 14 16 17 19 20 20 21 21 21 21 22 22 22 22 23 23 23 23 23 23 23 23 23 23 23 21 17 14 12 10
4 5 6 8 9 9 10 10 10 11 11 11 11 9 8 6 5 5 5 4 4 5 5 5 5 5 5 5 5 5 4 4 3 3 2 3 4 4 5 5 5 5 5 5 5 6 6 6 6 7 8 9 9 9 9 10 11 11 12 15 16 17 18 19 20 20 21 21 22 22 22 22 22 23 23 22 23 23 23 23 21 17 12 10 10 9
5 6 6 7 7 7 7 7 7 7 8 8 8 7 6 5 5 5 4 4 4 4 5 5 5 5 5 4 4 4 3 3 2 2 2 3 3 4 5 5 6 5 4 4 4 5 6 5 5 6 7 8 9 9 9 10 10 10 9 10 11 13 15 17 18 19 19 20 21 21 21 22 22 22 22 22 22 22 22 22 20 16 11 9 9 9
6 6 6 6 5 5 5 5 5 5 5 5 5 4 4 4 4 4 4 4 4 4 5 5 5 5 5 5 5 4 4 3 3 4 4 3 4 4 5 5 5 5 4 4 4 5 5 5 5 5 7 8 8 9 9 10 9 9 9 10 10 11 13 15 15 16 16 17 18 19 20 20 21 21 21 21 21 21 21 22 20 16 11 9 9 9
6 5 5 5 5 4 4 4 4 4 4 3 3 3 3 4 4 4 4 4 4 4 5 5 5 6 6 6 6 6 5 5 5 6 6 4 4 4 4 5 6 6 5 5 5 6 6 6 6 7 7 8 8 8 9 9 9 9 9 9 9 10 11 12 12 12 12 14 15 16 17 18 19 19 20 20 20 20 21 21 19 17 13 10 9 9
6 5 5 5 4 4 4 4 3 3 3 3 3 3 3 3 4 4 4 4 4 5 5 5 6 6 6 6 6 7 6 6 6 6 6 5 4 4 5 6 6 6 6 5 5 6 6 7 7 7 7 7 8 8 8 9 9 9 9 9 9 9 10 10 10 10 11 11 11 12 13 14 15 16 17 18 18 18 19 19 19 18 17 13 10 9
5 5 5 4 4 4 3 3 3 3 3 3 3 3 3 3 4 4 4 4 5 5 5 5 6 6 6 6 6 7 7 6 6 6 6 5 4 4 5 6 6 6 6 6 6 6 5 7 9 9 8 8 8 8 8 8 9 9 9 9 9 9 9 9 9 10 10 10 10 10 10 10 11 12 13 14 15 17 18 19 19 19 19 18 15 12
5 4 4 4 3 3 3 3 3 3 3 3 3 3 4 4 4 4 4 5 5 5 6 6 6 6 7 7 7 8 8 7 7 7 7 6 5 5 5 5 6 6 6 7 7 6 6 8 9 10 10 9 8 8 7 8 8 8 9 9 9 9 9 9 9 10 10 10 10 10 9 9 9 10 11 14 16 17 18 19 19 20 20 20 19 17
4 4 4 4 3 3 3 3 3 3 3 3 4 4 4 4 4 4 5 5 5 6 6 7 8 8 9 8 9 9 9 8 8 9 9 8 7 6 6 6 6 7 7 7 7 7 7 8 9 9 9 9 8 7 7 8 8 9 9 9 9 9 10 10 10 10 10 10 10 10 10 10 10 10 11 14 15 16 17 18 18 19 20 20 20 20
4 4 4 3 3 3 3 3 3 3 3 4 4 4 4 5 5 6 6 6 7 7 7 7 8 9 11 12 12 12 12 12 12 12 12 10 8 8 7 7 8 8 7 7 7 8 8 8 9 9 9 8 9 9 9 9 9 9 10 10 10 10 10 10 10 10 9 10 11 11 11 11 10 10 10 11 11 11 12 12 13 14 16 16 18 19
4 4 4 4 3 3 3 3 4 4 4 4 4 5 5 6 6 6 6 6 7 7 8 8 8 8 10 11 13 14 14 14 14 13 12 11 10 9 8 8 8 8 8 8 8 8 8 8 8 8 8 9 9 10 10 9 10 10 10 10 10 10 10 10 10 9 10 10 11 11 11 10 10 10 9 9 9 9 9 9 10 10 11 11 12 14
4 4 4 4 4 4 4 4 4 4 4 5 5 5 5 5 5 6 6 6 7 7 8 9 8 8 9 10 11 12 13 12 12 12 11 11 10 9 9 9 9 9 8 8 8 8 9 9 9 10 10 9 9 9 9 10 10 10 11 10 9 9 9 10 10 10 10 10 10 10 10 10 9 9 9 9 9 9 9 9 9 9 10 9 9 9
4 4 4 4 4 4 4 4 4 4 5 5 5 5 5 5 5 5 5 6 6 6 6 7 7 8 8 9 10 11 12 12 12 12 10 10 10 10 9 9 9 9 9 9 9 9 9 9 10 10 10 10 10 11 11 11 12 13 13 11 10 10 11 11 11 10 10 10 10 10 10 10 10 10 10 10 9 9 9 9 9 10 9 9 8 8
4 4 4 4 4 4 4 4 5 5 5 5 5 5 5 4 4 5 5 5 5 5 5 6 6 7 8 8 9 9 10 10 11 11 10 10 11 11 10 10 9 8 8 9 9 9 10 10 10 10 10 10 10 10 11 11 12 12 12 12 12 12 12 11 10 9 9 9 9 9 11 10 10 10 10 10 10 10 10 10 11 11 11 9 9 9
4 4 4 4 4 5 5 5 5 5 4 4 4 4 5 4 4 5 5 5 6 6 6 6 6 7 7 8 8 8 8 9 9 10 10 9 10 10 11 11 10 9 9 9 9 10 10 10 10 10 10 10 10 11 12 12 12 12 12 12 12 10 8 8 8 8 9 9 10 10 10 10 10 10 10 10 9 9 10 11 12 13 12 11 10 10
4 4 4 4 4 4 4 4 4 4 4 4 5 5 5 5 5 5 6 6 6 6 6 6 6 7 7 8 8 8 7 7 8 9 9 10 9 10 10 12 12 11 10 9 9 9 9 10 10 10 10 10 10 11 11 11 12 12 12 12 12 11 10 9 10 10 10 10 10 10 10 10 10 10 10 10 9 9 9 10 10 11 11 11 10 10
4 4 4 4 4 4 4 4 5 5 5 5 5 5 5 5 5 5 5 6 6 6 6 6 6 6 6 7 7 7 7 7 7 7 8 9 10 11 11 10 10 10 10 10 9 9 9 9 10 10 9 9 10 11 11 12 12 12 12 12 12 12 12 12 11 11 10 10 10 10 10 10 10 10 10 10 10 9 9 10 10 10 10 10 10 10
4 4 4 4 4 4 5 5 5 5 5 5 5 5 5 5 5 5 6 6 6 6 6 6 6 6 7 7 7 7 7 7 7 7 6 7 8 8 9 9 9 8 8 9 9 10 10 10 10 10 10 10 10 11 12 12 12 12 12 12 12 12 12 11 11 11 11 11 11 11 11 11 10 10 9 10 10 10 10 10 10 10 10 10 10 10
4 4 4 4 4 4 5 5 5 5 5 5 5 5 5 5 5 5 6 6 6 6 6 6 6 7 8 8 8 7 8 8 8 7 7 7 7 7 7 7 8 8 8 9 9 10 11 11 11 11 10 10 11 11 12 11 12 12 12 12 11 11 11 11 11 11 11 11 11 11 11 10 10 10 10 11 11 10 10 10 10 10 10 10 10 10
4 4 4 4 5 5 5 5 5 5 6 6 6 5 5 5 6 6 6 6 6 6 6 6 6 7 8 8 8 8 8 9 9 8 8 8 7 7 7 7 7 7 8 9 10 11 12 12 12 12 12 11 11 12 12 11 11 12 12 11 11 11 11 11 11 11 11 11 11 11 10 9 9 9 10 10 10 10 10 10 10 9 9 9 9 10
4 4 4 5 5 5 5 5 5 6 6 6 6 6 5 6 7 7 6 6 6 6 6 6 7 7 8 8 8 8 9 9 9 9 8 8 7 7 7 7 7 7 7 9 9 10 11 12 13 13 13 12 12 12 12 12 12 11 11 11 10 10 11 11 11 11 11 11 11 10 9 8 8 9 9 10 11 11 11 11 10 10 9 9 9 9
4 4 4 5 5 5 6 6 6 6 6 6 6 6 6 6 6 6 6 6 6 6 6 7 7 8 8 8 8 8 9 9 9 8 8 8 7 7 7 7 7 8 8 8 8 8 8 8 9 11 13 13 13 13 13 12 12 11 11 10 10 10 10 10 11 11 11 11 11 10 9 9 8 8 8 10 11 12 12 11 10 9 9 8 9 9
4 4 4 5 5 5 6 6 6 6 6 7 7 7 7 6 6 6 6 6 6 6 7 7 7 8 8 9 9 9 9 9 9 9 9 8 8 8 8 8 8 8 8 7 7 7 6 6 7 7 9 12 13 13 12 11 11 11 10 10 9 9 9 10 10 11 11 11 11 10 9 9 9 8 8 9 10 11 12 12 11 10 9 8 8 9
Wind_Direction
233 231 192 211 237 254 259 257 263 271 279 284 289 295 300 298 296 296 298 298 297 296 295 293 292 291 291 291 291 292 294 295 297 298 299 300 300 300 299 298 297 296 295 293 292 291 291 290 289 288 288 287 286 286 285 285 285 284 284 284 284 284 284 284 285 286 286 287 287 287 288 288 288 288 289 289 288 288 287 286 285 285 284 284 283 283
205 211 205 218 236 254 268 265 266 270 279 287 292 297 300 300 300 299 299 297 296 294 294 293 293 292 291 290 291 293 295 296 298 299 300 300 300 300 299 298 297 296 295 294 292 291 290 289 288 288 287 286 286 285 285 285 285 285 285 285 285 285 285 286 286 287 287 287 288 288 288 288 289 289 288 288 287 286 285 284 283 283 282 282 282 282
208 220 220 220 231 247 266 272 274 277 282 288 292 295 297 297 297 296 296 295 294 293 291 291 290 290 290 290 292 294 296 297 299 299 300 300 300 299 298 297 296 295 295 293 292 291 290 289 288 288 287 287 286 286 286 286 286 286 286 287 287 287 287 287 288 288 288 288 288 289 289 288 288 288 287 286 286 285 284 283 282 282 282 281 281 281
234 243 243 235 239 248 262 273 280 284 286 287 289 291 292 292 292 291 292 293 293 292 290 289 290 291 291 292 293 295 296 297 298 299 299 299 299 298 297 297 296 295 294 293 292 291 290 290 289 288 288 288 287 287 287 287 287 287 288 288 289 289 289 289 289 289 289 289 289 289 289 288 288 287 286 286 285 284 283 283 282 281 281 280 280 280
242 252 261 262 264 265 268 275 279 282 283 283 284 285 286 287 288 290 291 291 291 290 290 291 292 293 294 294 294 295 296 297 297 297 297 297 296 296 295 295 294 294 293 292 292 291 290 290 289 289 289 289 288 288 288 288 289 289 289 290 290 290 290 290 290 290 290 290 289 289 289 288 287 286 286 285 284 284 283 282 281 281 280 279 279 279
257 260 273 277 279 281 284 283 280 279 279 279 281 284 287 289 290 291 290 290 290 291 293 293 294 293 293 292 293 294 295 295 295 295 294 294 294 293 293 293 293 292 292 291 291 291 291 290 290 290 289 289 289 289 289 289 290 290 290 291 291 291 291 291 291 291 291 290 290 289 289 288 287 286 285 284 284 283 282 282 281 280 279 279 278 278
270 269 269 268 272 275 278 274 271 271 274 279 284 288 291 291 291 290 290 292 292 293 293 292 291 290 290 290 291 293 294 294 294 293 293 292 291 291 292 292 292 291 291 291 291 291 291 291 290 290 290 290 289 289 289 289 290 290 291 291 292 292 292 292 291 291 290 290 289 289 288 287 286 285 285 284 283 282 282 281 280 279 279 278 278 278
265 264 251 251 257 261 263 262 264 268 275 283 290 293 295 294 294 293 292 292 291 291 291 291 290 290 289 291 292 293 294 294 294 293 292 292 292 292 292 292 292 292 292 292 291 291 291 291 290 290 290 289 289 289 289 290 290 291 291 292 292 292 292 291 291 290 290 289 288 288 287 286 285 284 284 283 282 281 280 280 279 279 278 278 277 277
257 261 256 253 258 266 272 273 277 283 287 288 291 295 298 299 298 295 291 288 287 287 290 293 293 293 292 293 293 293 292 292 293 293 293 294 294 294 294 294 293 292 291 290 290 290 289 289 289 289 289 289 289 289 289 290 290 291 291 292 292 291 291 291 290 290 289 289 288 287 286 285 284 283 282 281 280 279 279 278 278 277 277 277 276 276
247 254 260 259 262 267 275 280 284 287 289 287 288 291 296 296 295 292 289 287 287 289 291 293 294 294 293 293 292 291 291 289 289 288 288 289 289 290 290 290 289 288 288 288 288 288 288 288 288 288 288 288 288 289 289 290 290 291 291 291 291 291 291 290 290 290 289 288 287 286 285 284 283 282 281 280 279 279 278 277 277 276 276 276 276 276
240 245 254 260 261 261 260 270 276 281 280 279 279 277 274 276 281 288 292 294 296 297 295 291 290 292 293 293 292 291 290 289 287 286 285 286 286 286 286 286 285 286 286 287 288 288 288 289 289 289 289 289 289 289 290 290 290 291 291 291 291 290 290 290 289 289 288 287 286 285 284 283 282 282 281 280 280 279 279 278 277 277 276 276 275 275
246 250 254 264 270 271 269 271 271 268 262 262 266 268 266 269 280 292 298 300 300 300 297 292 289 288 290 292 292 291 288 287 287 288 288 288 288 288 288 289 288 289 289 290 290 290 290 291 291 291 290 290 290 289 290 290 290 290 290 290 290 290 290 289 289 288 288 287 286 286 285 284 283 283 282 282 281 281 280 279 278 277 276 276 275 275
244 249 259 266 270 272 273 271 266 260 255 260 271 280 285 292 297 298 295 293 293 294 295 293 291 289 288 287 287 286 285 285 287 289 291 293 294 296 298 298 298 298 296 295 293 292 292 293 293 292 291 290 289 289 288 288 289 289 289 289 290 290 290 290 289 289 289 288 288 287 286 286 285 284 284 283 282 281 280 279 278 277 276 275 275 274
246 250 255 261 264 265 264 267 272 279 286 288 291 293 295 297 294 290 285 284 286 290 295 296 296 294 290 285 283 283 285 287 289 291 292 294 297 301 303 302 301 300 298 296 293 293 294 295 293 291 290 289 288 288 288 288 289 289 290 290 291 291 291 291 291 290 290 289 288 288 287 287 286 285 284 283 282 281 280 279 278 277 276 275 274 274
257 258 262 266 268 269 272 282 292 300 300 298 295 292 288 285 283 282 282 286 292 299 301 298 295 292 287 285 285 286 288 290 293 294 295 296 300 304 305 302 300 298 296 294 292 292 294 293 291 290 289 289 289 289 290 291 291 291 291 291 292 292 292 291 291 291 290 290 289 288 287 287 286 285 285 284 283 282 281 280 279 278 277 276 275 274
264 263 265 272 276 282 291 300 301 296 289 284 281 278 278 280 281 285 291 298 302 303 299 297 295 292 287 288 290 291 293 295 297 299 300 300 302 305 305 303 300 298 295 292 291 292 292 291 290 289 288 289 289 290 291 291 291 291 291 291 291 291 291 291 291 291 290 289 289 288 287 287 286 286 285 285 284 283 282 281 280 279 278 277 276 275
263 263 267 274 280 286 291 287 281 277 276 275 275 276 280 286 292 296 299 299 296 293 290 294 296 297 296 293 291 293 298 302 304 305 304 301 301 303 305 303 300 296 292 290 290 290 291 289 288 287 288 290 291 291 291 291 290 290 290 290 290 290 291 291 291 290 290 289 289 289 288 288 288 287 286 286 285 284 283 282 281 280 279 278 277 276
258 261 268 275 279 282 282 280 277 278 281 285 288 290 290 293 295 294 289 284 282 281 283 285 287 290 292 292 293 299 309 312 311 308 303 299 299 301 304 299 295 292 289 288 287 287 288 287 288 288 290 291 291 290 290 289 289 289 289 289 290 290 290 290 290 290 290 290 290 290 289 289 288 288 287 286 285 284 283 282 281 280 279 279 278 277
261 266 272 274 275 277 278 281 287 293 297 299 300 299 295 292 288 282 276 273 274 276 280 281 281 283 286 289 294 305 316 316 314 309 302 298 298 299 300 295 291 288 287 286 287 287 288 288 288 288 288 288 288 288 288 288 289 289 289 290 290 291 291 291 291 291 291 290 290 290 289 289 288 288 287 286 285 284 283 282 281 280 279 279 278 277
270 269 268 272 276 280 281 286 293 298 298 300 298 295 291 286 281 275 272 271 271 273 277 278 279 280 282 286 294 305 316 316 311 304 299 295 294 294 296 294 292 290 288 286 287 288 290 289 288 287 286 287 287 288 289 289 290 290 291 291 291 291 291 291 291 291 290 290 290 289 289 288 288 287 286 285 285 284 283 282 281 280 279 278 278 277
275 273 275 284 289 290 288 291 292 294 297 300 296 290 283 279 275 272 271 271 271 271 271 272 276 280 286 292 298 305 311 309 305 300 296 292 291 292 295 293 291 289 287 287 288 289 289 288 287 286 286 288 289 290 290 291 291 291 291 291 291 291 291 291 291 290 290 290 289 289 288 287 287 286 285 285 284 283 283 282 281 280 279 279 278 277
287 290 298 298 295 290 288 290 292 292 292 287 281 275 274 275 275 275 275 275 275 276 276 278 282 286 290 291 294 297 301 299 296 293 292 287 286 287 291 290 288 287 286 287 288 289 288 287 287 288 289 290 290 291 291 291 291 291 291 291 291 291 291 291 291 290 290 289 289 288 287 287 286 285 285 285 284 284 283 283 282 281 281 280 279 278
290 291 293 290 288 287 289 288 286 283 280 275 272 271 271 273 275 276 276 278 281 284 285 286 287 287 286 287 288 289 289 284 281 280 280 281 284 286 290 291 289 286 285 288 290 291 291 290 290 291 291 290 290 290 290 290 290 290 290 290 291 291 291 291 290 290 289 289 288 287 287 287 286 286 286 286 286 285 285 284 283 283 282 281 280 279
289 288 288 287 285 282 279 277 275 274 272 270 268 267 264 263 267 272 278 283 286 286 285 285 284 283 282 283 283 283 282 278 275 271 271 277 282 286 291 292 290 288 287 289 292 295 295 293 291 290 290 290 290 290 290 290 290 290 290 290 290 290 290 290 290 289 289 288 288 288 288 288 288 287 287 287 286 286 285 284 283 283 282 281 280 279
290 287 287 284 281 277 275 275 276 278 281 278 276 274 273 275 279 282 284 283 283 282 282 283 283 282 283 284 285 285 285 282 277 270 267 274 279 283 289 291 290 289 289 292 295 297 295 292 291 290 290 290 290 290 290 290 289 289 289 289 289 289 289 289 289 289 289 289 289 288 288 288 288 287 287 287 286 285 284 284 283 282 281 280 279 278
287 285 286 287 288 288 289 289 289 290 291 292 293 295 296 295 292 288 283 280 279 279 281 281 282 283 286 288 289 288 288 281 272 265 264 273 280 284 287 289 289 289 290 293 295 295 294 293 293 294 293 291 290 289 288 288 288 287 287 288 288 288 289 289 289 289 289 289 289 288 288 288 287 287 286 286 285 284 284 283 282 282 281 281 280 279
284 286 289 292 294 295 295 294 292 291 290 289 290 291 293 293 289 283 278 277 278 280 281 281 282 285 287 286 285 286 288 287 278 269 266 272 278 282 286 289 291 291 292 293 295 296 295 294 293 292 290 288 287 287 286 287 287 288 288 288 288 289 289 289 289 288 288 288 288 287 287 287 286 286 285 285 285 284 283 283 283 282 282 282 281 279
275 283 288 291 291 290 289 287 285 284 284 284 285 285 285 282 276 273 271 275 279 281 277 277 280 283 286 286 287 289 292 287 278 270 265 268 271 277 285 291 293 294 296 296 296 294 291 288 286 286 285 285 286 286 287 289 290 290 290 289 289 289 288 288 288 288 287 287 287 287 286 286 286 285 285 285 284 284 284 284 284 284 283 282 280 278
261 273 279 280 280 280 280 280 280 280 281 282 282 281 278 271 266 264 267 273 275 273 269 269 272 276 282 286 289 289 285 274 265 261 263 268 271 276 285 291 295 298 300 299 296 292 285 282 282 284 285 287 290 292 293 294 293 292 290 289 289 288 288 288 288 287 287 287 287 287 286 286 286 285 285 285 284 284 284 284 284 284 283 281 278 276
270 274 274 273 273 273 275 276 278 279 280 280 278 275 269 262 258 259 264 267 266 264 265 267 270 273 278 285 287 284 274 265 259 258 269 272 275 280 289 293 296 299 304 303 300 295 288 284 283 285 289 293 295 296 296 295 293 291 290 289 289 288 288 288 288 288 288 288 287 287 287 286 286 286 285 285 284 284 284 284 284 284 281 279 277 274
283 280 278 277 277 277 277 278 278 278 278 275 272 268 261 257 256 257 259 259 259 259 262 265 268 270 273 277 279 278 276 276 285 297 297 281 279 284 293 293 294 295 299 299 298 297 296 293 290 291 296 297 297 295 293 292 291 291 290 290 289 288 289 289 289 289 289 288 288 287 287 287 286 286 285 284 284 284 283 283 283 282 280 278 276 274
288 287 287 288 287 284 279 276 275 274 274 271 265 260 255 255 256 258 259 257 256 257 260 263 265 266 265 265 267 271 276 284 295 302 299 287 282 284 289 289 291 291 292 287 284 287 293 296 299 301 301 297 294 291 289 289 289 289 290 290 289 289 290 291 291 290 289 289 288 288 287 287 286 285 285 284 283 282 282 281 281 280 278 276 274 273
293 292 291 289 286 282 276 273 272 273 275 272 268 263 259 259 260 261 260 257 256 256 258 262 264 265 264 263 263 265 270 277 285 290 289 284 282 283 287 288 289 291 291 283 277 274 277 285 292 297 296 292 290 289 289 289 289 289 289 290 289 290 291 292 291 290 290 290 289 289 288 287 286 285 284 283 282 281 280 279 279 277 275 273 272 271
293 291 289 287 285 283 279 277 278 279 279 278 275 273 270 266 263 262 261 260 258 258 258 260 262 264 266 266 266 266 268 271 276 281 285 284 283 285 288 287 288 289 290 285 280 277 274 279 284 290 292 290 289 288 289 289 289 289 289 289 289 290 292 293 292 291 291 291 290 289 288 287 285 284 283 281 280 279 278 278 277 275 273 271 269 267
292 290 289 290 289 288 287 286 286 285 283 281 279 277 274 270 266 264 263 263 262 261 259 258 260 261 264 266 268 270 271 274 280 286 291 289 287 286 287 284 284 286 287 285 284 283 281 281 284 287 290 292 291 289 288 289 290 291 290 289 290 290 292 293 293 292 291 290 288 286 285 285 284 282 281 280 279 279 278 278 276 275 273 271 269 267
293 294 295 295 294 292 292 292 292 290 287 285 285 283 280 276 273 269 267 266 265 264 262 260 259 258 259 262 265 269 273 278 284 289 290 287 285 283 282 280 282 283 284 283 282 282 283 284 285 287 289 290 291 291 290 291 292 293 293 292 292 291 291 291 291 290 289 287 285 284 283 282 281 281 280 280 280 279 279 278 277 276 274 272 270 268
295 297 298 296 295 296 298 298 297 296 293 291 290 290 288 285 282 279 275 271 268 265 264 262 259 257 254 256 260 264 271 276 280 281 281 280 279 277 276 277 278 278 277 278 279 280 282 284 286 286 286 285 287 291 295 298 298 297 295 295 294 293 291 290 288 287 285 283 282 281 281 281 281 281 281 281 281 280 279 278 277 275 274 272 271 269
296 296 294 294 296 299 301 301 300 299 297 296 295 294 292 290 286 283 279 273 269 266 264 262 260 259 257 258 260 263 267 271 273 274 273 273 271 270 270 272 272 271 268 269 273 276 278 281 283 285 284 283 284 288 293 298 298 297 295 295 293 291 289 288 286 284 282 281 282 282 282 282 282 282 282 281 281 280 279 277 275 274 274 272 270 269
293 292 293 296 300 303 302 301 300 301 300 299 298 296 292 289 285 281 277 274 270 267 264 265 265 265 262 262 262 263 265 266 266 266 264 262 261 261 263 266 268 268 266 265 266 267 269 272 275 279 282 285 287 289 290 291 293 294 295 295 292 288 285 286 285 285 284 284 284 284 283 281 281 280 279 279 278 277 276 276 274 273 273 273 271 269
292 294 296 300 303 303 302 301 301 301 301 298 295 293 290 288 286 283 279 276 274 273 271 271 270 270 268 266 264 263 263 261 260 258 256 252 250 251 255 260 264 267 267 265 263 262 263 266 269 271 274 279 283 286 288 288 288 290 293 294 292 289 288 289 288 287 285 283 282 281 280 279 278 277 276 276 275 274 273 273 273 272 271 272 272 273
293 295 297 300 302 301 299 298 299 299 298 296 294 292 292 291 289 286 283 280 278 276 276 275 273 272 271 269 267 267 265 263 261 258 253 246 243 243 248 254 258 263 265 265 263 262 261 264 267 269 271 274 277 280 282 283 284 287 289 287 286 287 290 289 288 286 283 280 277 276 277 278 279 278 277 276 274 272 271 270 271 271 270 268 267 268
294 296 299 301 301 299 297 297 297 296 294 293 293 293 292 289 287 286 285 285 284 283 281 280 280 279 279 276 273 270 267 264 261 258 253 245 240 239 243 247 252 256 261 264 264 264 263 264 266 269 270 273 276 278 279 280 282 283 283 282 284 287 289 285 283 281 281 280 280 280 280 280 280 279 277 276 274 271 269 268 267 267 267 265 263 261
295 297 300 298 297 296 296 296 295 295 295 294 292 289 287 287 287 289 290 289 288 287 286 284 284 285 285 283 281 277 272 268 266 265 262 254 246 242 243 246 249 252 255 260 264 265 265 264 265 266 268 269 271 273 277 281 282 282 280 281 284 288 288 286 285 285 284 283 282 281 280 279 277 277 276 275 273 271 269 267 266 265 264 263 261 259
298 297 294 292 292 293 294 296 297 297 297 294 291 289 288 288 288 288 288 287 286 286 286 286 286 286 284 285 286 287 285 282 279 277 275 271 262 255 252 251 251 251 251 254 259 264 268 267 266 266 267 268 269 271 274 278 280 281 280 280 280 279 278 282 286 287 284 280 278 276 275 275 276 276 276 275 273 271 269 267 265 263 261 260 259 258
296 292 289 289 292 295 298 300 300 299 296 293 291 289 289 287 286 284 284 285 286 287 287 289 289 287 285 286 289 292 294 294 292 288 282 275 269 263 260 257 256 254 252 251 254 258 265 269 271 271 271 269 268 269 272 275 277 278 278 278 277 275 272 276 279 280 279 278 277 276 275 276 277 278 278 275 273 271 269 267 265 264 261 258 256 255
286 286 288 293 297 299 301 300 298 295 291 290 288 286 285 284 283 282 281 282 284 285 286 287 286 284 285 289 292 295 296 296 294 291 286 282 277 272 268 264 262 259 257 255 255 255 258 263 269 273 275 273 269 267 266 269 272 275 276 277 276 276 275 276 276 277 278 279 279 279 279 279 279 279 277 276 274 272 270 268 265 264 262 258 256 254
286 290 294 297 298 299 298 296 295 292 290 288 286 284 284 283 283 281 279 279 280 282 284 283 281 280 282 285 289 292 294 294 294 293 292 290 287 284 280 274 269 266 264 263 262 261 260 261 263 267 270 272 272 270 268 268 269 271 274 276 277 277 277 278 278 278 279 279 279 280 281 281 279 277 276 276 276 275 273 270 267 264 261 258 256 254
291 293 295 296 296 296 295 294 292 289 287 285 285 284 284 283 281 281 280 279 279 280 282 281 280 279 279 282 284 286 289 290 292 293 293 293 292 289 286 284 280 277 273 271 269 267 265 263 261 260 262 265 268 270 271 270 269 269 271 274 276 277 277 278 279 280 279 278 277 277 278 277 276 276 277 278 278 277 276 273 269 266 262 259 256 254
289 289 289 292 292 292 291 290 288 287 286 287 288 288 287 284 283 282 281 280 280 279 278 278 279 280 281 282 283 284 286 287 288 290 292 293 294 293 292 291 289 287 284 280 276 272 270 266 261 257 255 256 260 265 269 269 269 269 270 272 273 275 276 277 279 280 280 280 279 277 274 272 272 273 276 278 279 279 279 278 275 271 266 261 258 255
282 283 285 288 289 289 288 287 287 287 288 290 291 291 290 289 286 283 280 278 276 274 273 274 277 279 282 283 284 285 285 286 287 288 289 291 292 294 294 295 295 294 291 287 284 280 278 273 266 258 252 250 253 258 265 269 270 271 271 271 272 273 276 278 280 282 285 286 285 284 280 277 274 272 273 275 278 280 282 281 279 275 271 266 262 259
283 283 285 286 286 285 284 285 286 287 288 289 289 290 289 288 286 283 279 277 274 273 272 272 273 276 279 281 283 283 284 284 285 285 286 289 291 293 294 294 295 295 294 292 291 290 288 287 283 274 263 256 253 255 262 268 273 275 276 274 275 276 278 280 283 286 288 289 289 288 286 282 278 274 272 274 277 280 283 283 282 280 277 274 270 266